Location: Prairie View Elementary School
(39.8322°N, 99.5698°W)
Time: 22:50:02
(UTC+00:00)

SL-16 R/B - Pass Details

Date: 08 December 2019
Orbit: 840 x 849 km, 71.0° (Epoch: 22 January)

Event Time Altitude Azimuth Distance (km) Brightness Sun altitude
Exits shadow 11:34:23 59° 247° (WSW) 976 2.2 -24.7°
Drops below altitude 10° 11:39:50 10° 174° (S) 2,462 4.8 -23.7°
Sets 11:42:18 0° 170° (S) 3,392 5.6 -23.2°
